www.pogodaiklimat.ru

Погода и климат >> Архив погоды >> Бельгия >> Гуман


ПОГОДА в Гумане

  • Прогноз погоды в Гумане
  • Монитор погоды в Гумане

АРХИВ ПОГОДЫ в Гумане

Время (UTC), дата Ветер
(напр.,м/с)
 
Видим.   Явления Облачность Т
(С)
Тd
(С)
f
(%)
Тe
(С)
Тes
(С)
Комфортность P
(гПа)
Po
(гПа)
Тmin
(С)
Tmax
(С)
R
(мм)
R24
(мм)
S
(см)
13 14.07 С 4 н/о 9/9 <50 м
[]
+16.2 +9.3 64 +16 +17 1020.6 985.7 166
14 14.07 н/о 10/10 <50 м
[]
+16.3 +9.7 65 1020.4 985.5 91
15 14.07 С 4 н/о н/о +16.6 +10.1 65 +16 +16 1020.3 985.4 77
16 14.07 С 4 н/о 10/10 <50 м
[]
+16.7 +10.5 67 +16 +16 1020.2 985.3 60
17 14.07 С 4 н/о 10/10 <50 м
[]
+16.5 +10.5 68 +16 +16 1020.2 985.3 59
18 14.07 С 4
{8}
н/о 10/10 <50 м
[]
+15.5 +10.4 72 +15 +15 1020.4 985.5 +17.4 25
19 14.07 н/о 10/10 <50 м
[]
+15.1 +10.2 73 1020.7 985.7 12
20 14.07 С 3 н/о 10/10 <50 м
[]
+14.6 +10.2 75 +14 +14 1020.8 985.7 1
21 14.07 С 3
{6}
н/о 10/10 <50 м
[]
+14.2 +10.6 79 +13 +13 1021.0 985.8
22 14.07 С 2 н/о 10/10 <50 м
[]
+13.9 +11.0 83 +13 +13 1021.0 985.8
23 14.07 С 3 н/о 10/10 <50 м
[]
+13.8 +10.9 83 +13 +13 1021.0 985.8
00 15.07 С 4
{7}
н/о 10/10 <50 м
[]
+13.6 +10.8 83 +12 +12 1020.9 985.7 89
01 15.07 С 3 н/о 10/10 <50 м
[]
+13.0 +9.8 81 +12 +12 1020.9 985.6
02 15.07 С 3 н/о 10/10 1000 м
[]
+12.6 +9.3 80 +11 +11 1020.7 985.3
03 15.07 С 4
{7}
н/о 10/10 <50 м
[]
+11.8 +9.2 84 +10 +10 1020.8 985.3
04 15.07 С 3 н/о 8/8 <50 м
[]
+10.9 +9.0 88 +9 +9 1021.0 985.5
05 15.07 С 2 н/о ясно +10.5 +9.1 91 +9 +10 1021.0 985.4 4
06 15.07 С 3
{7}
н/о 6/6 <50 м
[]
+11.6 +10.1 91 +10 +11 1021.3 985.8 +10.5 30
07 15.07 СВ 3 н/о 10/10 <50 м
[]
+12.6 +9.9 84 +11 +11 1021.4 986.0 40
08 15.07 С 2 н/о 10/10 <50 м
[]
+13.3 +9.1 76 +13 +13 1021.6 986.3 50
09 15.07 С 3
{5}
н/о 10/10 <50 м
[]
+13.6 +8.2 70 +13 +13 1021.4 986.2 58
10 15.07 С 4 н/о н/о +13.9 +8.1 68 +13 +13 1021.4 986.2 75
11 15.07 С 3 н/о 10/10 <50 м
[]
+14.5 +8.5 67 +14 +14 1021.3 986.2 87
12 15.07 С 4
{6}
н/о 10/10 <50 м
[]
+14.8 +8.3 65 +14 +14 1021.3 986.2 104
13 15.07 С 3 н/о 10/10 <50 м
[]
+15.3 +8.7 65 +15 +15 1021.2 986.2 103
14 15.07 С 4 н/о 10/10 <50 м
[]
+15.0 +9.0 67 +14 +14 1021.3 986.2 74
15 15.07 С 3
{6}
н/о 10/10 <50 м
[]
+15.5 +9.0 65 +15 +15 1021.2 986.2 83
16 15.07 н/о 10/10 <50 м
[]
+15.4 +8.9 65 1021.1 986.1 54
17 15.07 С 3 н/о 10/10 <50 м
[]
+15.0 +9.3 69 +14 +14 1020.9 985.8 37
18 15.07 С 3
{6}
н/о 10/10 <50 м
[]
+14.8 +8.8 67 +14 +14 1020.8 985.7 +15.7 28
19 15.07 С 2 н/о 10/10 <50 м
[]
+14.1 +9.6 74 +14 +14 1021.0 985.8 8
20 15.07 СВ 2 н/о 10/10 <50 м
[]
+13.6 +9.0 74 +13 +13 1021.1 985.8 2
21 15.07 С 2
{5}
н/о 10/10 <50 м
[]
+13.4 +8.6 73 +13 +13 1021.3 986.0
22 15.07 СВ 2 н/о 9/9 <50 м
[]
+12.8 +8.2 74 +12 +12 1021.3 986.0
23 15.07 С 1 н/о 9/9 <50 м
[]
+12.7 +8.2 74 +13 +13 1021.2 985.9
00 16.07 СВ 1
{5}
н/о 10/10 <50 м
[]
+12.4 +8.3 76 +12 +12 1021.2 985.8 84
01 16.07 н/о 9/9 <50 м
[]
+12.0 +8.8 81 1021.1 985.7
02 16.07 С 2 н/о 10/10 <50 м
[]
+12.1 +9.8 86 +11 +11 1020.9 985.5
03 16.07 С 1
{3}
н/о 10/10 <50 м
[]
+12.1 +10.1 88 +12 +12 1020.7 985.3
04 16.07 штиль 0 н/о 10/10 <50 м
[]
+11.2 +9.5 89 +11 +11 1020.9 985.3
05 16.07 штиль 0 н/о 10/10 <50 м
[]
+11.2 +9.8 91 +11 +11 1021.0 985.5 4
06 16.07 ЮЗ 1
{3}
н/о 10/10 <50 м
[]
+11.8 +10.4 91 +12 +12 1021.3 985.8 +11.2 14
07 16.07 З 1 н/о 10/10 <50 м
[]
+12.9 +11.0 88 +13 +13 1021.3 986.0 35
08 16.07 С 1 н/о 9/9 <50 м
[]
+13.8 +9.1 73 +14 +15 1021.0 985.8 62
09 16.07 С 2
{3}
н/о 9/9 <50 м
[]
+14.7 +8.3 65 +14 +16 1020.9 985.8 95
10 16.07 н/о 9/9 <50 м
[]
+15.5 +8.7 64 1020.7 985.7 131
11 16.07 С 2 н/о 10/10 <50 м
[]
+15.7 +9.1 65 +16 +16 1020.4 985.5 118
12 16.07 С 3
{5}
н/о 9/9 <50 м
[]
+16.4 +9.5 64 +16 +18 1020.2 985.3 149
13 16.07 С 3 н/о 3/3 <50 м
[]
+17.2 +9.6 61 +17 +26 1019.7 985.0 240
14 16.07 СВ 3 н/о 8/8 <50 м
[]
+18.1 +9.8 58 +18 +21 1019.3 984.6 227
15 16.07 С 2
{7}
н/о 8/8 <50 м
[]
+18.8 +9.9 56 +20 +22 1018.9 984.4 196
16 16.07 С 1 н/о 9/9 <50 м
[]
+19.5 +10.1 55 +22 +22 комфорт 1018.4 984.0 148
17 16.07 С 2 н/о 10/10 <50 м
[]
+18.9 +9.3 54 +20 +20 1018.2 983.7 89
18 16.07 С 3
{7}
н/о 9/9 <50 м
[]
+18.4 +10.3 59 +19 +19 1018.3 983.8 +19.5 62
19 16.07 н/о 9/9 <50 м
[]
+17.4 +10.1 62 1018.2 983.5 41
20 16.07 С 2 н/о н/о +14.7 +9.8 72 +14 +14 1018.8 983.8 5
21 16.07 СВ 2
{5}
н/о ясно +13.7 +9.6 76 +13 +13 1019.0 983.8
22 16.07 СВ 2 н/о ясно +13.3 +9.7 79 +13 +13 1018.8 983.6
23 16.07 В 2 н/о 5/5 <50 м
[]
+12.4 +9.5 82 +11 +11 1018.9 983.5
00 17.07 В 2
{5}
н/о 3/3 <50 м
[]
+10.9 +9.0 88 +10 +10 1018.9 983.4 162
01 17.07 ЮВ 1 н/о 8/8 <50 м
[]
+10.2 +8.6 90 +10 +10 1018.8 983.2
02 17.07 В 2 н/о ясно +9.3 +8.0 92 +8 +8 1018.7 983.0
03 17.07 В 2
{3}
н/о ясно +8.9 +7.8 93 +7 +7 1018.2 982.5
04 17.07 В 1 н/о ясно +8.7 +7.8 94 +8 +8 1018.2 982.5
05 17.07 В 1 н/о 9/9 <50 м
[]
+8.5 +7.8 95 +8 +8 1018.2 982.5 6
06 17.07 штиль 0
{3}
н/о 4/4 <50 м
[]
+10.5 +9.8 95 +10 +12 1017.6 982.2 +8.5 32
07 17.07 СЗ 1 н/о ясно +13.1 +12.0 93 +13 +19 1017.6 982.4 75
08 17.07 С 2 н/о 4/4 <50 м
[]
+14.8 +11.5 81 +14 +20 1017.4 982.5 125
09 17.07 СВ 3
{4}
н/о 4/4 <50 м
[]
+17.0 +10.5 66 +17 +23 1017.1 982.4 172
10 17.07 СВ 2 н/о 4/4 <50 м
[]
+18.0 +10.0 59 +19 +27 1016.8 982.2 212
11 17.07 С 2 н/о 4/4 <50 м
[]
+19.8 +11.0 57 +22 +32 комфорт 1016.3 982.0 238
12 17.07 В 2
{5}
н/о 5/5 <50 м
[]
+20.7 +11.3 55 +23 +32 комфорт 1015.5 981.3 201
13 17.07 В 1 н/о ясно +21.8 +10.2 48 +24 +42 комфорт 1015.0 980.9 235
14 17.07 С 2 н/о 3/3 <50 м
[]
+22.8 +9.9 44 +25 +34 комфорт 1014.7 980.8 217
15 17.07 СВ 2
{5}
н/о 8/8 <50 м
[]
+23.3 +9.6 42 +25 +27 комфорт 1014.3 980.4 194
16 17.07 СВ 3
{7}
н/о 9/9 <50 м
[]
+23.2 +9.0 40 +25 +25 комфорт 1013.8 979.9 149
17 17.07 СВ 2
{4}
н/о 5/5 <50 м
[]
+22.8 +9.0 41 +24 +26 комфорт 1013.6 979.7 118
18 17.07 СВ 3
{7}
н/о 8/8 <50 м
[]
+21.0 +8.7 45 +23 +23 комфорт 1013.6 979.5 +23.6 50
19 17.07 СВ 3
{4}
н/о 9/9 <50 м
[]
+19.5 +9.6 53 +21 +21 комфорт 1013.9 979.6 17
20 17.07 СВ 2
{4}
н/о н/о +18.0 +9.9 59 +19 +19 1014.3 979.8 3
21 17.07 СВ 3
{4}
н/о 9/0
[]
+17.8 +9.8 59 +18 +18 1014.3 979.7
22 17.07 В 3 н/о 9/9 <50 м
[]
+16.0 +9.8 67 +16 +16 1014.2 979.5
23 17.07 В 3
{4}
н/о 10/10 <50 м
[]
+15.0 +10.4 74 +14 +14 1014.3 979.5
00 18.07 В 3
{4}
н/о 10/10 <50 м
[]
+15.4 +10.3 72 +15 +15 1014.2 979.5 205
01 18.07 В 3 н/о 10/10 <50 м
[]
+15.3 +10.1 71 +15 +15 1013.8 979.1
02 18.07 ЮВ 1 н/о 10/10 <50 м
[]
+15.3 +9.2 67 +16 +16 1013.5 978.7
03 18.07 Ю 1
{4}
н/о 9/9 <50 м
[]
+15.4 +9.1 66 +16 +16 1013.3 978.5
04 18.07 ЮЗ 1
{2}
н/о 10/10 <50 м
[]
+15.3 +9.4 68 +16 +16 1013.1 978.4
05 18.07 ЮЗ 2 н/о 10/10 <50 м
[]
+14.9 +10.0 72 +15 +15 1013.2 978.4 4
06 18.07 ЮЗ 1
{5}
н/о 10/10 <50 м
[]
+14.8 +9.7 71 +15 +15 1013.5 978.6 +14.7 16
07 18.07 ЮЗ 3 н/о ясно +16.9 +10.4 66 +17 +21 1013.4 978.9 65
08 18.07 З 2 н/о 8/8 <50 м
[]
+18.4 +11.5 64 +19 +21 1013.2 978.9 123
09 18.07 ЮЗ 3
{5}
н/о 9/9 1500 м
[]
+19.7 +11.1 58 +21 +22 комфорт 1013.2 979.0 144
10 18.07 З 3 н/о 9/9 <50 м
[]
+20.6 +11.9 57 +23 +24 комфорт 1012.9 978.9 164
11 18.07 ЮЗ 4
{6}
н/о 6/6 1500 м
[]
+21.6 +11.5 53 +24 +28 комфорт 1013.1 979.1
12 18.07 ЮЗ 5
{8}
н/о 9/9 <50 м
[]
+22.5 +10.8 48 +25 +25 комфорт 1012.5 978.6 148
13 18.07 ЮЗ 7 н/о 9/8
[]
+22.2 +10.0 46 +24 +25 комфорт 1012.7 978.7 112
14 18.07 ЮЗ 6 н/о 9/9 <50 м
[]
+22.8 +11.4 49 +25 +26 комфорт 1012.5 978.6 139
15 18.07 ЮЗ 5
{10}
н/о 9/9 <50 м
[]
+22.6 +11.2 48 +25 +25 комфорт 1012.5 978.6 103
16 18.07 З 5 н/о 9/8
[]
+22.6 +10.4 46 +24 +25 комфорт 1012.6 978.7 87
17 18.07 З 4 н/о 9/9
[]
+21.9 +10.9 50 +24 +24 комфорт 1012.9 978.9 61
18 18.07 З 3
{10}
н/о 9/9 <50 м
[]
+21.4 +11.4 53 +23 +23 комфорт 1012.9 978.9 +22.9 29
19 18.07 СЗ 5 н/о 9/9
[]
+20.4 +10.9 54 +22 +22 комфорт 1013.6 979.3 18
20 18.07 СЗ 3 н/о н/о +16.0 +13.0 82 +16 +16 1014.9 980.2
21 18.07 ЮВ 2
{8}
н/о 9/9 <50 м
[]
+15.7 +13.9 89 +16 +16 1014.9 980.2
22 18.07 Ю 1 н/о 10/10 <50 м
[]
+15.8 +14.3 91 +16 +16 1014.9 980.2
23 18.07 Ю 2 н/о 10/10 <50 м
[]
+15.6 +13.8 89 +15 +15 1015.2 980.4
00 19.07 Ю 1
{8}
н/о 10/10 <50 м
[]
+15.4 +14.1 92 +16 +16 1015.2 980.4 136
01 19.07 Ю 2 н/о 10/10 <50 м
[]
+15.4 +14.5 94 +15 +15 1015.2 980.4
02 19.07 Ю 1 н/о 10/10 600 м
[]
+15.4 +14.6 95 +16 +16 1015.1 980.3
03 19.07 Ю 2
{3}
н/о 10/10 <50 м
[]
+15.5 +14.8 96 +15 +15 1015.2 980.4
04 19.07 З 3 н/о 9/8 1000 м
[]
+15.3 +14.6 96 +15 +15 1015.2 980.4
05 19.07 ЮЗ 3 н/о 9/9 <50 м
[]
+14.5 +13.4 93 +14 +14 1015.7 980.8 2
06 19.07 ЮЗ 3
{7}
н/о 6/6 750 м
[]
+14.4 +13.1 92 +13 +14 1016.0 981.1 +14.4 20
07 19.07 ЮЗ 3 н/о 6/6 <50 м
[]
+15.4 +13.2 87 +15 +16 1016.3 981.5 54
08 19.07 ЮЗ 4 н/о 9/9 <50 м
[]
+16.2 +12.3 78 +15 +16 1016.6 981.9 92
09 19.07 ЮЗ 5
{7}
н/о 10/10 <50 м
[]
+17.4 +11.6 69 +17 +17 1016.6 982.0 119
10 19.07 ЮЗ 5 н/о 9/9 <50 м
[]
+18.4 +11.6 65 +18 +19 1016.5 982.0 158
11 19.07 ЮЗ 4 н/о 9/9
[]
+19.1 +11.8 63 +20 +21 1016.4 982.0 196
12 19.07 ЮЗ 6
{10}
н/о 9/9 <50 м
[]
+20.7 +11.7 56 +23 +23 комфорт 1016.0 981.7 192
13 19.07 ЮЗ 5 н/о 9/9 <50 м
[]
+21.2 +11.5 54 +23 +24 комфорт 1015.8 981.7 171
14 19.07 ЮЗ 4 н/о 6/6 <50 м
[]
+21.9 +11.5 52 +24 +28 комфорт 1015.5 981.4 187
15 19.07 ЮЗ 5
{9}
н/о 6/6 <50 м
[]
+22.3 +11.9 52 +25 +27 комфорт 1015.1 981.1 163
16 19.07 ЮЗ 5 н/о 9/9 <50 м
[]
+21.6 +12.0 54 +24 +24 комфорт 1014.8 980.8 97
17 19.07 ЮЗ 4 н/о 5/5 <50 м
[]
+21.9 +12.1 54 +24 +25 комфорт 1014.8 980.8 82
18 19.07 ЮЗ 4
{9}
н/о 9/9 <50 м
[]
+21.3 +12.6 58 +24 +24 комфорт 1014.9 980.8 +22.3 45
19 19.07 Ю 1 н/о 9/9 <50 м
[]
+20.2 +12.7 62 +23 +23 комфорт 1014.7 980.5 20
20 19.07 ЮВ 1 н/о 9/9 <50 м
[]
+19.1 +13.0 68 +21 +21 комфорт 1014.9 980.5 3
21 19.07 В 2
{5}
н/о 9/0
[]
+17.1 +13.2 78 +17 +17 1014.9 980.3
22 19.07 В 2 н/о 9/9
[]
+16.4 +13.2 81 +17 +17 1014.8 980.2
23 19.07 В 3 н/о 6/6 <50 м
[]
+16.2 +13.1 82 +16 +16 1014.5 979.8
00 20.07 В 3
{5}
н/о 10/10 <50 м
[]
+16.0 +12.9 82 +16 +16 1014.0 979.3 161
01 20.07 ЮВ 3 н/о 9/9 <50 м
[]
+16.8 +13.4 80 +17 +17 1013.4 978.9
02 20.07 Ю 3 н/о 3/3 <50 м
[]
+16.9 +12.9 77 +17 +17 1013.0 978.5
03 20.07 Ю 3
{6}
н/о 10/10 <50 м
[]
+16.6 +12.3 76 +16 +16 1012.9 978.3
05 20.07 Ю 4 н/о 9/9 <50 м
[]
+17.3 +13.5 78 +17 +17 1012.1 977.7 5
06 20.07 Ю 4
{7}
н/о 6/6 <50 м
[]
+19.2 +13.7 70 +20 +21 1011.9 977.7 +15.9 29
07 20.07 Ю 4 н/о ясно +21.1 +14.0 64 +24 +27 комфорт 1011.6 977.7 74
08 20.07 Ю 4 н/о 8/8 <50 м
[]
+23.0 +14.2 58 +27 +28 душно 1011.4 977.7 123
09 20.07 Ю 5
{9}
н/о 10/10 <50 м
[]
+23.2 +13.8 55 +27 +27 душно 1011.6 977.8 90
10 20.07 Ю 5 н/о 9/8
[]
+23.2 +14.0 56 +27 +28 душно 1011.3 977.6 78
11 20.07 Ю 5 н/о 9/9 <50 м
[]
+24.4 +14.5 54 +27 +28 жарко 1011.5 977.9 134
12 20.07 ЮЗ 7
{11}
н/о 9/9 1320 м
[]
+25.2 +14.3 51 +28 +28 жарко 1011.4 978.0 138
13 20.07 Ю 8 н/о 9/9 <50 м
[]
+24.7 +13.8 51 +27 +27 жарко 1011.6 978.0 113
14 20.07 Ю 6 н/о 4/4 <50 м
[]
+25.2 +15.4 55 +28 +31 жарко 1011.1 977.7 149
15 20.07 ЮЗ 6
{15}
н/о 9/0
[]
+25.5 +14.6 51 +28 +28 жарко 1011.1 977.7 84
17 20.07 З 6 н/о 1/1 <50 м
[]
+22.8 +15.2 62 +27 +28 душно 1013.3 979.5 97
18 20.07 З 5
{15}
н/о 9/9 <50 м
[]
+22.4 +14.8 62 +26 +26 жарко 1013.7 979.8 +25.9 50
19 20.07 З 5 н/о 4/4 <50 м
[]
+22.6 +13.6 57 +26 +26 жарко 1014.0 980.1 37
20 20.07 З 3 н/о 1/1 <50 м
[]
+20.6 +13.1 62 +23 +23 комфорт 1015.1 980.9 4
21 20.07 З 4
{10}
н/о 9/9 <50 м
[]
+19.2 +14.2 73 +21 +21 комфорт 1016.1 981.7
22 20.07 СЗ 2 н/о 9/9 <50 м
[]
+18.3 +14.5 79 +19 +19 1017.0 982.5
23 20.07 З 2 н/о 9/9 <50 м
[]
+18.0 +13.6 75 +19 +19 1017.6 983.1
00 21.07 З 4
{10}
н/о 9/9 1200 м
[]
+17.2 +12.9 76 +17 +17 1018.2 983.5 127
01 21.07 ЮЗ 3 н/о 9/9 <50 м
[]
+16.1 +12.3 78 +16 +16 1018.8 983.9
02 21.07 ЮЗ 3 н/о ясно +15.2 +12.0 81 +15 +15 1019.0 984.0
03 21.07 ЮЗ 3
{6}
н/о ясно +14.8 +11.8 82 +14 +14 1019.4 984.4
05 21.07 ЮЗ 3 н/о ясно +14.0 +11.7 86 +13 +13 1020.9 985.8 5
06 21.07 ЮЗ 3
{6}
н/о 5/5 <50 м
[]
+14.7 +11.8 83 +14 +15 1021.4 986.3 +13.4 0.2 32
07 21.07 З 3 н/о 9/9 <50 м
[]
+15.7 +12.6 82 +15 +16 1021.8 986.8 77
08 21.07 З 3 н/о 4/4 <50 м
[]
+16.9 +12.9 77 +17 +21 1022.1 987.3 119
09 21.07 ЮЗ 3
{5}
н/о 4/4 <50 м
[]
+18.4 +13.0 71 +19 +25 1022.6 987.9 158
10 21.07 З 4 н/о 5/5 <50 м
[]
+19.9 +12.6 63 +22 +27 комфорт 1022.6 988.1 182
11 21.07 З 3 н/о 4/4 <50 м
[]
+21.4 +12.3 56 +24 +32 комфорт 1022.5 988.2 228
12 21.07 З 5
{7}
н/о 8/8 1230 м
[]
+22.2 +10.8 48 +24 +26 комфорт 1022.7 988.5 218

 

Местоположение метеостанции Гуман (Бельгия): широта 50.20 долгота 5.25 высота над уровнем моря 294 м.

В архиве по умолчанию представлена погода в Гумане за последнюю неделю. Архивные данные за месяц целиком и за предыдущие месяцы, начиная с января 2011 года, Вы можете получить, выбрав интересующий диапазон дат из раскрывающегося списка и нажав кнопку "Ввод!".


*Определитесь, кто Вы:
робот инопланетянин человек

Внимание! Время в таблицах - всемирное. Для получения местного времени необходимо прибавить поправку, которая равна 1 ч.

Смотрите также архив погоды в соседних городах и на ближайших метеорологических станциях:

Погода в Сент-Губерте (Бельгия) (22 км)
Погода во Флорене (Бельгия) (43 км)
Погода в Дурбе (Бельгия) (48 км)
Погода в Бьерсете (Бельгия) (52 км)
Погода в Спа (Бельгия) (57 км)
Погода в Шарлеруа (Бельгия) (64 км)
Погода в Чарвилле (Франция) (64 км)
Погода в Эрнаже (Бельгия) (66 км)
Погода на Монт-Риги (Бельгия) (68 км)
Погода в Бюзеноле (Бельгия) (69 км)

Пояснения к столбцам:

Ветер - указаны скорость ветра в м/с - средняя за 10 мин, порывы в срок и между сроками (в фигурных скобках) и направление, откуда дует ветер: С - северный, СВ - северо-восточный, В - восточный, ЮВ - юго-восточный, Ю - южный, ЮЗ - юго-западный, З - западный, СЗ - северо-западный.
Видимость - горизонтальная дальность видимости в метрах или километрах. При видимости от 1 до 10 км при отсутствии осадков обычно наблюдается дымка, при ухудшении видимости до 1 км и менее - туман. В сухую погоду видимость может ухудшаться дымом, пылью или мглою.
Явления - указаны атмосферные явления, наблюдавшиеся в срок или в последний час перед сроком; фигурными скобками обозначены явления, наблюдавшиеся между сроками (за 1-3 часа до срока); квадратными скобками обозначены град или гололедные отложения с указанием их диаметра в мм.
Облачность - указаны через наклонную черту общая и нижняя облачность в баллах и высота нижней границы облаков в метрах; квадратными скобками обозначены формы облаков: Ci - перистые, Cs - перисто-слоистые, Cc - перисто-кучевые, Ac - высококучевые, As - высокослоистые, Sc - слоисто-кучевые, Ns - слоисто-дождевые, Cu - кучевые, Cb - кучево-дождевые. Подробнее классификацию облаков см. в Атласе облаков (PDF).
T - Температура воздуха - температура, измеренная на высоте 2 м над землей.
Td - Температура точки росы - температура, при понижении до которой содержащийся в воздухе водяной пар достигнет насыщения.
f - Относительная влажность воздуха - влажноcть воздуха, измеренная на высоте 2 м над землей.
Te - Эффективная температура - температура, которую ощущает одетый по сезону человек в тени. Характеристика душности погоды. При расчете учитывается влияние влажности воздуха и скорости ветра на теплоощущения человека.
Tes - Эффективная температура на солнце - температура, которую ощущает человек, с поправкой на солнечный нагрев. Характеристика знойности погоды. Зависит от высоты солнца над горизонтом, облачности и скорости ветра. Ночью, в пасмурную погоду, а также при ветре 12 м/с и более поправка равна нулю.
P - Атмосферное давление - приведенное к уровню моря атмосферное давление.
Po - Атмосферное давление - измеренное на уровне метеостанции атмосферное давление.
Tmin - Минимальная температура - минимум температуры воздуха на высоте 2 м над землей.
Tmax - Максимальная температура - максимум температуры воздуха на высоте 2 м над землей.
R - Количество осадков - Количество выпавших осадков за период времени, мм. При наведении курсора мыши на число - период времени, за который выпало указанное количество осадков.
R24 - Количество осадков - Количество выпавших осадков за 24 часа, мм.
S - Снежный покров - Высота снежного покрова, см. При наведении курсора мыши на число - состояние снежного покрова и степень покрытия местности в баллах.